Regional Weather Roundup
Issued by NWS

Home | Current Version | Previous Version | Graphics & Text | Print | Product List | Glossary On
Versions: 1 2 3 4 5 6 7 8 9 10 11 12 13 14 15 16 17 18 19 20 21 22 23 24 25 26 27 28 29 30 31 32 33 34 35 36 37 38 39 40 41 42 43 44 45 46 47 48 49 50
000
ASUS43 KDTX 301501
RWRMI
MICHIGAN HOURLY REGIONAL WEATHER ROUNDUP
NATIONAL WEATHER SERVICE DETROIT/PONTIAC MI
1100 AM EDT TUE AUG 30 2016

NOTE: "FAIR" INDICATES FEW OR NO CLOUDS BELOW 12,000 FEET WITH NO
SIGNIFICANT WEATHER AND/OR OBSTRUCTION TO VISIBILITY.

MIZ047>049-052>055-059>063-066>070-074>076-081>083-301600-
SOUTHEAST LOWER MICHIGAN

CITY           SKY/WX    TMP DP  RH WIND       PRES   REMARKS
ADRIAN         MOSUNNY   78  57  48 S3        30.17F
ALMA           SUNNY     78  74  86 SW5       30.14S
ANN ARBOR      CLOUDY    78  55  44 S7        30.17S
BAD AXE        CLOUDY    76  67  73 SW9       30.14F
CARO           SUNNY     77  68  73 SW9       30.14F
DETROIT CITY   SUNNY     78  60  53 SW9       30.16F
DETROIT        PTSUNNY   78  61  55 S8        30.17F
FLINT          CLOUDY    73  64  73 W9        30.16S
GROSSE ILE     SUNNY     75  67  76 CALM      30.16S
HILLSDALE      PTSUNNY   75  60  58 CALM      30.18S
HOWELL         DRIZZLE   76  64  65 SW7       30.17S

CITY           SKY/WX    TMP DP  RH WIND       PRES   REMARKS
JACKSON        CLOUDY    75  65  70 SW7       30.17F
LAMBERTVILLE   SUNNY     79  62  56 S3        30.16F
LANSING        CLOUDY    77  63  61 S10       30.16F
LAPEER         FAIR      79  64  60 SW8       30.16F
MASON          MOSUNNY   77  64  65 CALM      30.16F
MONROE         SUNNY     79  62  55 SW6       30.16S
MT. CLEMENS    MOSUNNY   80  68  65 SW6       30.14F
PONTIAC        PTSUNNY   77  62  59 SW7       30.16F
PORT HOPE        N/A     79  69  71 W6        30.11F
PORT HURON     SUNNY     77  70  78 S8        30.15F
TRI CITIES     SUNNY     77  69  76 SW9       30.14F
MIDLAND        FAIR      78  69  73 W3        30.12F
TROY           SUNNY     79  61  53 S6        30.18S
SAGINAW HB     SUNNY     77  64  65 SW7       30.13F
$$
MIZ043>046-050>051-056>058-064>065-071>073-077>080-301600-
SOUTHWEST LOWER MICHIGAN

CITY           SKY/WX    TMP DP  RH WIND       PRES   REMARKS
BATTLE CREEK   CLOUDY    70  68  93 SW8       30.17S
BENTON HARBOR  LGT RAIN  69  66  90 S6        30.15F
BIG RAPIDS     PTSUNNY   79  69  73 SW3       30.14S
COLDWATER      LGT RAIN  71  64  81 CALM      30.17F
FREMONT        FAIR      78  70  77 SW8       30.14R
HOLLAND        CLOUDY    76  69  79 SW7       30.15F
GRAND RAPIDS   PTSUNNY   76  67  73 S7        30.14F
IONIA          FAIR      76  67  73 W9        30.14S
KALAMAZOO      LGT RAIN  72  69  90 S3        30.16F
LUDINGTON      CLOUDY    75  72  92 SW8       30.12S
MARSHALL       CLOUDY    73  60  64 SW6       30.16S
MOUNT PLEASANT PTSUNNY   80  69  68 CALM      30.13S
MUSKEGON       PTSUNNY   80  69  69 S9        30.13S
SOUTH HAVEN    CLOUDY    72  69  90 S5        30.14F
$$
MIZ016>042-301600-
NORTHERN LOWER MICHIGAN

CITY           SKY/WX    TMP DP  RH WIND       PRES   REMARKS
ALPENA         SUNNY     81  67  62 SW6       30.08F
BEAVER ISLAND  MOSUNNY   76  71  83 W6        30.08S
BELLAIRE       PTSUNNY   77  69  78 S6        30.09F
CADILLAC       CLOUDY    72  69  91 W3        30.14S FOG
CHARLEVOIX     PTSUNNY   77  71  81 W10       30.12S
FRANKFORT      CLOUDY    73  70  89 SW5       30.12R FOG
GAYLORD        LGT RAIN  77  68  73 SW9       30.12S
GRAYLING       SUNNY     80  70  70 W7        30.13R
HARBOR SPRINGS CLOUDY    73  69  87 CALM      30.09F
HOUGHTON LAKE  SUNNY     73  66  78 SW5       30.14F
MANISTEE       CLOUDY    74  72  93 VRB5      30.12S FOG
OSCODA         SUNNY     80  68  65 SW9       30.10F
PELLSTON       CLOUDY    76  68  76 SW7       30.09S
ROGERS CITY    SUNNY     80  69  69 W6        30.08S
TRAVERSE CITY  PTSUNNY   79  70  74 VRB7      30.09S
$$
MIZ007>008-015-301600-
EASTERN UPPER MICHIGAN

CITY           SKY/WX    TMP DP  RH WIND       PRES   REMARKS
KINROSS        CLOUDY    73  67  81 VRB3      30.07F
MACKINAC ISLAN MOSUNNY   74  74 100 W8        30.08S
NEWBERRY       CLOUDY    73  68  84 W6        30.07S
S. S. MARIE    CLOUDY    73  67  81 W7        30.06S
MUNISING         N/A     72  67  84 NW12      30.08S
$$
MIZ004>006-011>014-085-301600-
CENTRAL UPPER MICHIGAN

CITY           SKY/WX    TMP DP  RH WIND       PRES   REMARKS
MANISTIQUE     PTSUNNY   78  68  72 NW7       30.08R
ESCANABA       MOSUNNY   78  68  71 VRB5      30.08F
MENOMINEE      MOSUNNY  N/A N/A N/A SW6         N/A
SAWYER-GWINN   SUNNY     70  64  83 NW3       30.11S
$$
MIZ001>003-009>011-084-301600-
WESTERN UPPER MICHIGAN

CITY           SKY/WX    TMP DP  RH WIND       PRES   REMARKS
IRON MOUNTAIN  PTSUNNY   73  64  73 NW8       30.11S
HOUGHTON       MOSUNNY   70  60  70 NW9       30.12R
COPPER HARBOR    N/A     67  61  81 N13       30.10R
IRONWOOD       CLOUDY    68  63  84 N6        30.17S
$$

ABBREVIATIONS USED IN REMARKS
   TC - TEMPERATURE IN CELSIUS
  WCI - WIND CHILL INDEX
   HX - HEAT INDEX
  VSB - VISIBILITY





USA.gov is the U.S. government's official web portal to all federal, state and local government web resources and services.